Wind_Speed
15 14 14 14 13 12 11 10 9 8 8 7 6 5 5 4 4 4 3 3 3 2 2 1 2 2 3 4 4 5 6 7 8 9 10 10 10 11 11 11 12 13 13 14 15 15 16 17 18 18 19 19 20 21 21 22 22 23 23 24 24 24 24 25 25 25 25 25 25
14 14 13 13 12 12 11 10 10 9 8 7 6 5 5 4 4 4 4 3 3 2 1 1 2 3 3 4 5 6 7 8 9 10 10 11 11 11 12 12 12 13 14 14 15 16 17 17 18 19 20 20 21 22 22 23 23 23 24 24 24 24 24 24 24 25 25 25 25
14 14 13 13 12 12 11 10 10 9 8 7 6 6 5 5 5 4 4 3 2 1 1 2 3 3 4 5 6 6 7 8 9 10 11 11 12 12 12 13 13 13 14 15 15 16 17 18 18 19 20 21 22 22 23 23 23 24 24 24 24 24 24 24 24 25 25 25 25
14 13 13 12 11 11 10 10 9 8 8 7 7 7 7 6 6 5 3 2 2 1 2 3 4 4 5 6 7 7 8 9 10 11 11 12 12 13 13 13 14 14 15 15 16 17 17 18 19 20 21 21 22 23 23 24 24 24 24 24 24 25 25 25 25 25 25 25 25
13 12 12 11 11 10 10 9 8 8 7 6 7 7 8 7 6 4 3 2 2 2 3 4 4 5 6 7 8 9 9 10 10 11 12 13 13 13 14 14 14 15 15 16 16 17 18 19 19 20 21 22 22 23 24 24 24 24 25 25 25 25 25 25 25 25 25 25 25
13 12 12 11 11 10 9 9 8 7 6 6 6 7 8 7 6 5 3 2 2 3 3 4 4 5 7 8 9 9 10 11 11 12 13 13 14 14 14 15 15 16 16 16 17 18 18 19 20 21 22 22 23 23 24 25 25 25 26 26 26 26 26 26 26 26 26 25 26
13 13 12 11 10 10 9 8 7 7 6 6 6 7 7 7 6 4 3 2 2 3 3 4 5 6 7 9 10 10 11 11 12 13 13 14 15 15 15 16 16 16 17 17 18 18 19 20 21 22 22 23 24 24 25 25 26 26 27 27 27 26 26 26 26 26 26 26 25
13 13 12 11 10 9 9 8 7 6 6 6 6 7 7 6 5 4 3 2 2 2 3 4 5 6 8 9 10 11 11 12 13 13 14 15 15 16 16 17 17 17 18 18 19 19 20 21 22 22 23 24 25 25 26 26 27 27 27 28 28 27 27 27 27 26 25 25 25
13 12 11 10 9 9 8 7 6 6 6 6 6 6 6 5 4 4 3 3 2 2 2 3 5 7 8 9 10 11 12 12 13 14 15 15 16 16 17 18 18 19 19 19 20 20 21 22 23 23 24 25 25 26 27 27 27 27 28 28 28 28 28 27 27 25 24 23 23
13 12 11 10 9 8 7 7 6 6 6 7 6 6 5 4 4 3 3 3 2 0 2 4 5 7 8 9 10 11 12 13 14 14 15 16 16 17 18 18 19 20 20 21 21 22 22 23 24 25 25 26 26 27 27 27 27 28 28 28 28 28 28 27 26 24 23 22 22
13 12 11 10 9 8 8 7 7 7 7 7 6 5 4 3 3 2 2 1 0 1 3 4 6 7 8 9 10 11 12 13 14 15 15 16 17 18 18 19 20 21 21 22 22 23 23 24 25 26 26 26 27 27 27 27 27 28 28 29 29 28 28 26 24 22 21 22 23
13 12 11 10 9 8 8 8 7 7 7 6 6 5 4 3 2 1 0 0 1 2 4 5 6 8 8 9 10 11 12 13 14 15 16 17 18 18 19 20 21 21 22 22 23 23 24 25 26 26 27 27 27 27 27 28 28 28 29 29 28 27 26 25 23 22 22 22 23
12 11 11 10 9 8 8 7 7 6 6 6 5 5 4 2 1 0 1 2 3 4 5 6 7 8 9 10 11 11 12 13 14 15 16 18 19 19 20 21 21 22 22 23 23 24 25 25 26 26 27 28 27 27 28 28 28 28 28 28 28 26 24 23 23 22 23 24 24
12 11 11 10 9 8 8 7 6 6 5 5 5 4 3 2 1 1 2 3 4 5 5 6 7 8 9 10 11 12 13 14 15 16 17 18 19 20 21 22 22 23 23 23 24 24 25 26 26 27 27 28 28 28 28 28 28 28 28 27 26 25 24 23 23 23 24 24 25
12 11 10 10 9 8 8 7 6 5 5 4 4 3 3 2 1 1 2 3 4 5 6 7 8 8 9 10 11 12 13 15 16 17 18 19 20 21 22 22 23 23 24 24 25 25 25 26 26 27 27 28 28 29 29 29 28 28 27 26 25 24 23 23 24 24 24 24 25
12 11 10 9 8 8 7 6 5 5 4 3 3 2 2 1 1 2 3 3 4 5 6 7 8 9 10 11 12 13 14 16 17 18 19 20 21 22 22 23 23 24 24 25 26 26 26 26 27 27 27 28 28 29 29 29 28 28 27 26 24 24 23 24 24 24 24 24 24
11 10 9 8 8 7 6 6 5 4 3 3 2 1 0 1 1 2 3 4 5 6 7 8 9 10 11 12 13 14 15 16 18 19 20 21 22 22 23 23 24 25 25 26 26 27 27 27 27 27 28 28 28 28 28 28 28 27 26 25 24 24 24 24 24 23 23 23 24
10 9 8 8 7 7 6 5 5 4 3 2 1 1 1 2 2 3 4 5 6 7 8 9 10 11 12 13 14 15 16 17 19 20 20 21 22 23 23 24 25 25 26 26 27 27 28 28 28 28 28 28 28 28 28 28 27 26 26 25 24 24 23 23 23 23 23 23 24
10 9 8 7 7 6 6 5 5 4 3 2 1 1 2 2 3 4 5 6 7 8 9 10 10 11 12 14 15 16 17 18 19 20 21 22 22 23 24 25 25 26 26 27 27 28 28 28 28 28 28 28 28 28 27 27 26 26 25 24 24 23 23 23 22 22 23 23 25
9 9 8 8 7 7 6 5 5 4 3 2 1 1 2 2 4 5 5 6 7 8 9 10 11 12 13 14 15 17 18 18 20 21 21 22 23 23 24 25 26 26 27 27 28 28 28 28 28 28 28 28 27 27 27 26 26 25 25 24 23 23 22 22 22 23 23 24 25
9 9 8 8 7 7 6 5 5 4 3 2 1 1 1 2 4 5 6 6 7 8 9 10 11 12 14 15 16 17 18 19 20 21 22 22 23 24 24 25 26 27 27 27 28 28 28 28 28 28 27 27 27 27 26 26 26 25 25 24 23 23 22 22 23 23 24 25 25
10 9 9 8 7 6 6 5 4 3 3 2 1 1 2 3 4 5 6 7 8 8 9 10 11 13 14 16 17 18 19 20 20 21 22 23 23 24 25 25 26 27 27 28 28 28 28 28 27 27 27 27 26 26 26 26 25 25 24 24 23 23 23 23 23 24 25 25 25
10 9 8 7 7 6 5 5 4 3 2 1 0 1 2 3 4 5 6 7 8 9 10 11 12 13 15 16 18 19 20 21 21 22 22 23 24 25 25 26 26 27 27 27 28 27 27 27 27 27 26 26 26 26 26 26 25 25 24 24 24 24 24 24 24 24 25 25 25
10 9 8 7 6 5 5 4 3 2 1 1 0 2 3 4 5 6 7 8 9 10 10 12 13 14 16 17 18 19 20 21 22 23 23 24 24 25 26 26 27 27 27 27 27 26 26 26 26 26 26 26 26 26 26 26 25 24 24 24 24 24 25 24 24 24 25 25 25
9 8 7 6 6 5 4 3 2 2 1 0 1 2 3 5 6 7 8 9 9 10 12 13 14 15 17 18 19 19 20 21 22 23 24 25 25 26 26 27 27 27 27 27 26 25 25 25 26 26 26 26 26 27 26 26 25 24 24 24 24 25 25 25 25 25 25 25 25
9 8 7 6 5 4 4 3 2 1 0 1 2 3 4 5 6 7 8 10 11 12 13 14 16 17 18 19 20 20 21 21 22 23 24 25 26 27 27 27 27 27 27 27 26 26 26 26 26 26 26 27 27 27 27 26 25 25 25 25 24 24 24 25 25 25 25 25 25
8 7 6 6 5 4 3 2 1 1 0 1 3 4 5 6 7 8 9 10 12 13 14 15 17 18 19 19 20 21 22 22 23 24 24 25 26 27 28 28 28 28 28 28 27 27 26 26 26 26 26 26 27 27 27 27 26 26 25 25 24 24 24 24 24 25 25 25 25
7 7 6 6 5 4 3 2 1 1 1 2 3 5 6 7 7 9 10 11 13 14 15 17 18 19 19 20 21 21 22 23 23 24 25 25 26 27 28 28 28 29 29 28 27 27 27 26 26 26 26 26 27 27 27 27 27 26 25 25 24 24 23 23 23 24 24 25 25
7 6 6 6 5 4 3 2 1 1 2 3 4 5 6 7 8 10 11 12 14 15 17 18 19 19 20 20 21 22 22 23 24 24 25 26 27 27 28 28 29 30 30 29 28 27 27 27 27 27 27 27 27 27 27 27 27 26 26 25 24 24 23 23 23 23 24 24 25
6 6 6 6 5 4 3 2 1 2 3 4 5 6 7 8 9 11 12 13 15 16 17 18 19 20 20 21 21 22 23 24 24 25 26 26 27 28 28 29 30 30 30 29 28 27 27 27 27 27 27 28 28 28 27 27 27 27 26 25 25 24 23 23 23 23 23 23 24
6 6 6 5 5 4 3 1 1 2 3 5 6 7 8 9 10 12 13 14 16 17 18 18 19 20 21 21 22 23 24 24 25 25 26 27 27 28 29 30 30 30 30 29 27 27 27 28 28 28 28 28 28 28 28 28 27 27 26 25 25 24 23 22 22 22 22 23 24
5 5 5 5 4 3 2 1 1 3 4 5 7 8 9 10 11 12 13 15 16 17 18 19 20 20 21 22 22 23 24 25 25 26 26 27 28 29 29 30 30 30 29 28 27 27 28 28 29 29 29 29 29 29 28 28 28 27 26 25 24 23 22 21 21 21 21 23 24
5 5 5 4 3 2 1 1 2 3 5 6 7 8 10 11 12 13 14 15 16 18 19 19 20 21 21 22 23 24 24 25 26 26 27 27 28 29 30 30 30 29 29 28 28 28 28 29 29 29 30 29 29 29 29 28 28 27 26 25 23 22 21 20 20 21 22 23 25
5 5 4 3 2 1 1 1 3 4 6 7 8 9 10 11 12 13 14 16 17 18 19 19 20 21 21 22 23 24 25 25 26 27 27 28 28 29 29 29 29 29 29 28 28 28 29 29 30 30 30 30 29 29 29 28 28 27 25 24 22 21 20 20 20 21 22 24 25
4 4 3 3 2 1 1 2 4 5 6 8 9 10 11 12 13 14 15 16 17 18 19 20 20 21 22 22 23 24 25 26 27 27 28 28 29 29 29 29 30 30 29 29 28 29 29 30 30 30 30 30 29 29 28 28 27 26 24 22 21 20 20 20 21 22 23 24 25
4 3 3 2 1 0 2 3 4 6 7 9 10 11 12 12 13 14 15 16 18 19 20 21 21 22 23 23 24 25 25 26 27 28 28 28 28 29 29 29 30 30 30 29 28 29 29 30 30 30 30 29 29 28 28 27 26 24 22 21 20 20 20 20 22 23 24 24 24
3 2 2 1 0 1 2 4 5 7 8 9 10 11 12 13 14 15 16 17 18 19 20 21 22 23 24 24 25 26 26 27 27 28 28 28 28 28 29 29 29 30 30 30 29 29 29 30 30 30 29 29 29 28 27 26 24 22 21 20 20 20 21 22 23 24 24 24 23
2 2 1 1 1 2 3 5 6 8 9 10 11 12 12 14 15 16 16 17 18 20 21 22 23 23 24 25 26 27 27 27 27 28 28 28 28 28 28 28 29 29 30 30 29 29 29 29 29 29 29 28 28 27 26 24 22 21 20 20 21 22 23 23 24 24 23 23 22
2 2 1 1 2 3 4 6 7 9 10 11 11 12 13 14 15 16 17 18 19 20 21 22 23 24 25 26 26 27 27 28 28 27 27 28 27 27 27 28 28 29 30 30 29 28 28 29 29 29 28 28 27 26 25 23 22 21 20 21 22 23 24 24 23 23 22 22 23
2 1 1 2 3 4 6 7 8 9 10 11 12 12 13 15 16 17 18 19 20 21 22 23 24 25 26 26 26 27 28 28 28 27 27 27 27 27 27 27 28 29 29 29 29 28 28 28 28 28 28 27 27 26 24 23 22 22 21 21 22 23 24 24 23 22 22 23 26
2 1 2 3 4 5 6 8 9 9 10 10 11 13 14 15 17 18 19 20 21 22 22 24 25 25 26 27 27 27 28 28 28 27 27 27 27 27 27 27 28 28 28 28 27 27 27 27 28 28 27 27 26 26 24 23 22 22 22 22 22 22 22 23 22 22 23 25 27
Wind_Direction
137 138 140 141 142 141 141 141 145 149 153 156 155 156 158 155 147 141 137 135 126 116 99 53 11 2 1 1 0 358 355 351 350 349 349 349 349 347 346 344 343 341 339 338 337 336 335 333 331 329 328 326 325 323 323 323 323 322 321 320 319 318 317 316 315 315 316 316 316
135 137 139 141 142 143 143 144 145 148 150 152 152 151 149 143 133 127 124 121 117 112 85 34 11 7 7 6 2 356 351 348 347 347 348 348 348 347 346 344 343 341 339 337 335 334 332 331 329 327 325 324 323 322 321 322 322 321 320 319 318 317 316 315 315 315 315 315 315
134 136 138 139 140 140 141 141 141 141 141 141 142 140 135 127 118 114 113 114 113 96 50 25 17 15 12 8 1 356 351 348 347 347 347 348 348 348 346 345 343 341 339 336 334 332 330 328 326 324 323 322 321 320 320 321 321 320 319 317 317 316 315 314 314 314 314 314 313
134 135 136 137 137 137 137 138 137 136 134 133 132 130 124 116 110 108 110 114 102 62 29 19 16 14 10 5 360 355 352 349 348 347 347 348 348 348 346 345 343 340 338 335 332 330 328 326 324 322 321 320 319 319 319 320 320 319 317 316 315 315 314 313 313 313 313 312 312
135 136 137 137 136 135 136 136 136 135 134 133 131 127 122 118 115 115 114 107 72 35 18 12 11 9 5 1 357 353 351 349 347 346 346 346 347 347 346 344 341 339 337 334 331 328 326 324 322 320 319 319 318 318 319 319 319 318 316 315 315 314 313 312 312 312 311 311 310
140 140 140 140 138 137 138 140 141 140 140 138 134 130 129 128 128 125 114 89 53 24 10 4 2 360 357 355 353 351 349 347 346 345 344 344 344 344 343 342 339 337 335 332 329 327 324 323 321 320 319 319 318 318 319 319 318 317 316 314 314 313 313 312 311 311 310 310 310
143 143 142 141 140 140 141 144 147 149 145 139 135 134 135 137 136 130 115 91 52 25 9 357 352 350 349 348 348 347 346 345 344 343 342 341 341 341 340 338 337 334 332 330 327 325 323 322 320 320 319 319 319 319 319 319 318 317 315 314 313 313 312 311 311 310 310 310 310
143 142 142 141 141 141 143 147 150 149 141 132 128 129 134 138 136 130 118 99 69 35 5 347 341 340 340 341 343 343 343 342 340 339 339 338 337 337 336 335 333 332 330 329 326 324 322 321 320 319 319 319 319 319 319 318 317 316 314 313 312 312 312 311 311 310 310 310 312
140 140 139 140 140 141 142 143 143 138 128 120 117 119 123 127 125 120 111 99 85 44 349 333 331 331 333 336 339 339 339 337 336 335 335 334 333 332 332 331 330 329 328 327 325 323 321 320 319 319 319 319 318 318 318 317 316 315 314 313 312 312 312 311 311 310 311 312 315
137 136 135 135 134 135 134 132 129 124 118 114 113 113 115 115 112 108 105 105 103 31 323 322 324 326 330 334 336 336 335 333 332 331 330 330 329 329 328 328 328 327 326 326 325 323 321 320 319 319 319 319 318 317 317 317 316 315 313 312 312 312 311 311 311 312 313 316 317
133 132 131 130 128 128 125 122 119 117 116 116 116 117 117 112 106 100 101 106 142 308 318 320 323 327 330 333 333 333 331 329 328 327 327 327 327 327 326 326 326 326 325 325 324 323 321 320 319 319 319 318 318 317 317 316 316 314 313 313 312 312 311 312 312 314 316 318 319
131 129 127 126 125 124 121 117 115 115 116 118 119 121 121 118 110 96 65 329 323 325 327 327 329 331 332 334 333 331 330 328 326 325 325 325 325 325 325 326 326 325 325 325 324 323 322 320 319 318 318 318 318 317 316 316 315 314 314 313 313 312 312 312 314 316 318 319 320
130 129 127 127 126 125 122 120 118 118 118 119 122 125 129 131 134 288 311 323 332 335 334 335 336 336 335 334 333 331 330 328 327 325 324 324 325 325 325 325 325 325 325 325 324 323 322 320 319 318 317 317 317 317 316 316 315 315 314 313 313 312 312 313 315 317 319 320 320
130 129 129 130 131 131 130 128 128 127 126 126 129 136 145 155 178 285 315 330 337 340 342 343 343 341 339 336 334 332 331 329 327 325 324 324 325 325 325 325 325 325 325 324 324 323 321 320 319 318 317 317 316 316 316 316 315 314 314 313 312 312 312 313 316 318 320 321 320
130 130 131 133 135 137 138 138 137 137 136 136 140 151 167 187 230 301 324 336 344 349 351 350 348 345 341 338 336 333 331 329 327 325 324 324 324 324 324 324 324 324 324 324 323 322 320 319 318 318 317 317 316 316 316 316 315 314 314 312 311 311 312 314 316 318 320 320 319
131 131 132 135 138 141 143 144 144 144 144 143 149 164 187 219 278 319 340 352 357 360 358 355 350 346 343 340 337 333 330 328 326 324 323 323 324 324 324 324 324 324 323 323 322 321 320 319 318 318 317 316 316 316 316 316 315 314 313 312 311 311 312 314 316 318 319 319 318
130 130 131 134 138 141 144 145 146 146 146 144 144 153 183 318 346 360 6 9 7 3 359 354 349 345 342 339 337 333 328 326 324 323 323 323 323 323 323 323 323 323 323 322 321 320 319 319 318 318 317 316 316 316 316 316 315 314 313 312 311 311 313 314 316 317 318 318 317
129 127 127 129 132 135 138 141 141 140 137 131 119 86 31 14 11 15 17 15 9 1 354 350 347 343 339 335 333 330 326 323 323 322 323 323 323 323 323 322 323 323 322 321 320 319 318 318 318 318 317 317 316 316 316 316 315 314 313 312 312 313 314 315 316 317 318 318 317
126 123 122 123 124 127 130 132 132 130 125 115 96 57 22 13 12 13 13 11 5 358 350 345 342 339 335 331 328 326 323 322 321 322 322 323 323 323 322 322 322 322 321 320 319 319 318 318 318 318 318 317 317 317 316 316 315 314 314 313 313 314 315 316 317 318 319 319 318
123 121 119 119 120 122 123 124 124 122 118 111 94 46 12 7 9 9 6 3 358 352 346 341 337 333 330 327 323 321 321 321 321 321 322 322 323 323 323 322 322 322 321 320 319 319 318 318 318 318 318 318 317 317 317 316 316 315 314 314 314 315 316 318 319 320 320 320 319
121 119 118 118 119 119 120 120 119 119 118 115 105 27 1 3 5 5 2 358 353 347 342 336 331 327 324 321 319 318 319 320 320 321 322 322 322 323 323 323 322 321 321 320 320 319 319 319 319 319 319 318 317 317 317 316 316 315 315 315 315 316 318 319 320 321 321 320 320
120 119 118 118 118 118 117 117 117 119 124 127 121 8 359 3 4 2 358 353 349 342 337 331 326 322 319 317 317 317 318 319 320 321 322 323 323 323 323 323 322 321 321 321 321 321 321 320 320 319 319 318 317 317 316 316 315 315 315 315 316 317 319 320 321 321 321 321 320
120 119 118 118 118 118 117 118 120 125 133 141 104 2 2 3 2 359 353 348 343 338 332 326 321 317 315 315 315 316 317 319 320 322 323 323 323 324 324 323 323 322 322 322 322 322 322 321 320 319 318 317 317 316 316 315 315 315 315 316 317 318 319 320 321 321 322 321 321
120 119 119 120 121 122 123 124 128 136 147 157 5 5 4 2 359 353 348 342 338 332 326 321 317 314 314 314 315 316 318 320 321 323 324 324 324 324 324 324 323 323 322 322 323 322 321 320 319 318 318 317 316 315 315 315 315 315 316 317 318 318 319 320 320 321 322 322 321
121 122 123 126 129 130 133 136 143 152 161 118 7 5 2 359 353 347 341 336 332 326 321 316 314 314 314 315 317 318 320 321 322 323 324 324 325 325 324 324 324 323 323 323 322 321 320 319 318 318 317 316 315 315 315 314 315 316 316 317 317 318 319 319 320 321 322 322 321
125 126 129 134 137 142 145 150 160 169 182 358 1 360 356 352 347 341 335 329 324 320 315 313 313 314 316 317 319 321 322 323 324 324 324 324 324 324 324 324 324 323 323 323 322 321 319 319 318 317 316 316 315 315 315 315 315 315 316 316 316 317 318 318 319 320 321 321 320
130 133 137 142 146 151 157 165 179 202 286 346 353 353 350 346 339 333 326 320 316 313 312 312 314 316 318 320 321 323 324 325 325 325 324 324 324 324 324 324 324 323 322 322 321 320 319 318 318 317 316 315 315 314 314 315 315 315 315 315 315 315 316 317 318 319 320 320 320
137 141 145 150 153 157 165 182 209 254 319 342 346 346 342 336 329 323 317 313 311 310 312 314 317 319 320 322 323 324 325 325 325 325 325 325 324 324 324 323 323 322 322 321 321 320 319 318 318 317 316 316 315 314 314 314 314 314 313 313 314 314 314 315 316 317 318 318 318
143 147 151 155 156 160 171 194 235 292 325 338 339 335 330 325 319 314 310 308 309 310 313 316 319 321 322 323 324 325 326 326 326 326 326 325 325 324 324 323 322 322 322 321 320 320 319 318 318 317 316 316 315 314 313 313 313 312 312 312 312 312 313 314 315 315 316 316 317
147 151 155 157 158 162 170 195 255 306 324 328 326 322 318 314 311 308 306 307 309 312 315 318 321 322 324 325 326 326 326 326 327 327 326 325 325 324 323 323 322 322 322 321 321 320 319 319 318 317 317 316 315 314 313 312 312 312 311 311 311 311 311 312 313 313 314 315 317
147 151 155 156 157 159 167 193 265 304 313 314 312 311 309 307 306 305 305 307 311 314 318 321 322 323 325 326 326 326 326 327 327 327 326 326 324 323 323 322 322 322 322 322 321 320 320 319 319 318 317 317 316 314 313 312 312 311 310 310 309 310 310 311 311 312 314 316 317
145 149 151 152 152 154 164 200 274 295 302 302 303 304 304 304 304 305 307 310 314 317 320 322 324 325 326 327 327 327 327 327 327 327 326 325 324 323 322 322 322 322 322 322 321 321 320 320 319 319 318 317 316 315 313 313 312 311 310 309 308 308 309 310 311 313 315 316 317
143 145 146 145 145 149 166 237 280 291 296 298 300 302 302 303 304 307 311 314 318 320 321 323 324 325 325 326 326 326 327 327 326 326 325 325 324 323 322 322 322 322 322 322 322 322 321 321 320 320 319 319 317 316 314 313 312 311 309 308 307 308 309 310 312 314 316 316 316
144 145 145 144 144 151 204 272 287 293 296 299 300 301 302 304 307 311 316 319 321 322 323 323 324 324 324 325 325 326 326 326 326 325 325 324 323 322 322 321 321 322 323 323 323 323 323 323 322 321 321 320 318 317 315 314 312 310 309 308 308 309 310 312 314 315 316 316 316
149 150 149 149 152 174 264 287 293 296 299 301 301 303 305 308 311 316 319 322 323 323 323 324 324 325 325 326 326 326 326 325 325 324 324 323 323 322 321 321 322 323 324 324 324 325 325 324 324 323 322 321 319 318 316 314 312 311 309 309 310 311 313 315 316 316 316 316 314
152 152 151 151 157 231 291 297 299 300 301 302 303 305 308 312 316 320 323 325 324 324 324 324 325 325 325 326 327 327 326 325 324 323 323 323 322 322 321 321 322 324 325 326 326 326 326 326 326 325 324 323 320 318 316 314 313 312 311 312 313 315 317 318 318 317 316 314 312
147 144 140 132 112 312 309 306 305 303 303 303 306 309 312 316 321 324 326 326 324 323 323 324 324 325 326 326 326 325 325 324 323 322 322 322 322 322 321 321 322 324 326 327 328 328 328 328 327 327 326 324 322 320 318 316 315 315 315 316 317 318 319 319 318 317 315 313 311
129 122 103 66 359 328 317 310 307 305 305 307 310 314 318 321 323 326 327 326 324 323 322 323 323 324 326 326 325 324 324 323 322 322 321 322 322 322 322 321 322 324 327 328 329 329 329 329 329 328 327 325 323 322 320 320 319 320 320 320 321 321 321 320 318 316 314 312 311
115 98 66 17 344 327 317 311 307 307 308 311 314 318 322 324 325 326 326 326 324 322 322 322 323 324 325 325 324 323 322 322 322 322 321 321 322 322 322 322 323 325 327 329 330 330 330 330 330 330 329 327 326 325 324 324 324 324 324 324 324 323 321 320 319 316 314 313 312
105 82 31 352 333 322 315 311 309 311 313 315 318 322 324 325 325 325 326 325 324 323 323 323 323 325 325 325 323 321 320 321 321 322 322 321 322 323 323 323 324 326 328 330 331 331 331 332 332 332 331 330 328 327 327 327 327 326 326 326 326 324 322 321 320 318 316 314 312
100 57 359 336 324 317 313 312 314 317 319 321 322 325 326 325 325 325 325 325 325 325 325 325 325 325 325 324 322 321 320 320 320 321 322 322 323 323 324 325 325 327 329 331 332 332 332 333 333 333 333 332 330 330 329 329 328 328 328 328 327 325 323 322 321 319 316 313 310
Height
785 786 786 787 787 788 789 789 790 791 791 791 792 792 792 792 792 792 792 792 792 792 792 792 792 792 792 792 792 792 791 791 791 790 790 789 788 788 787 786 786 785 784 784 783 782 782 781 781 780 779 778 778 777 777 776 775 775 774 773 772 772 771 770 769 768 767 767 766
785 786 786 787 787 788 789 790 790 791 791 791 792 792 792 792 792 792 792 792 792 792 792 792 792 792 792 792 792 791 791 791 790 790 789 789 788 787 787 786 785 785 784 783 782 782 781 781 780 779 778 778 777 776 776 775 775 774 773 772 772 771 770 769 768 767 767 766 765
785 785 786 787 788 788 789 790 790 791 791 791 792 792 792 792 792 792 792 792 792 792 792 792 792 792 792 792 791 791 791 790 790 790 789 788 788 787 786 785 785 784 783 783 782 781 781 780 779 778 778 777 776 776 775 774 774 773 772 771 770 770 769 768 767 766 766 765 764
785 786 787 787 788 788 789 789 790 790 791 791 791 791 791 791 791 791 791 792 792 792 792 792 792 792 792 791 791 791 791 790 790 789 789 788 787 787 786 785 784 783 783 782 781 781 780 779 779 778 777 776 776 775 774 773 773 772 771 770 770 769 768 767 766 765 765 764 763
785 786 787 787 788 788 789 789 790 790 790 791 791 791 791 791 791 791 791 791 791 791 792 792 791 791 791 791 791 790 790 790 789 789 788 787 787 786 785 784 784 783 782 782 781 780 779 779 778 777 777 776 775 774 773 772 772 771 770 769 769 768 767 766 765 764 764 763 762
785 786 787 787 788 788 789 789 790 790 790 790 791 791 791 791 791 791 791 791 791 791 791 791 791 791 791 791 790 790 790 789 789 788 788 787 786 785 785 784 783 782 782 781 780 779 779 778 777 776 776 775 774 773 772 772 771 770 769 768 767 767 766 765 764 763 762 762 761
786 786 787 787 788 788 789 789 790 790 790 790 790 790 790 790 791 791 791 791 791 791 791 791 791 791 790 790 790 790 789 789 789 788 787 787 786 785 784 783 782 782 781 780 779 778 778 777 776 776 775 774 773 772 772 771 770 769 768 767 766 766 765 764 763 762 761 760 759
786 786 787 787 788 788 789 789 789 790 790 790 790 790 790 790 790 790 790 790 790 790 790 790 790 790 790 790 790 789 789 788 788 787 787 786 785 784 783 782 782 781 780 779 779 778 777 777 776 775 774 773 772 772 771 770 769 768 767 766 765 764 764 763 762 761 760 759 758
786 786 787 787 788 788 789 789 789 790 790 790 790 790 790 790 790 790 790 790 790 790 790 790 790 790 790 789 789 789 789 788 787 787 786 785 784 783 782 782 781 780 779 778 778 777 776 776 775 774 773 772 772 771 770 769 768 767 766 765 764 763 762 762 761 760 759 758 757
786 786 787 787 788 788 789 789 789 789 789 790 790 790 790 790 790 790 790 790 790 790 790 790 789 789 789 789 789 789 788 787 787 786 785 785 784 783 782 781 780 779 778 777 777 776 775 775 774 773 772 772 771 770 769 768 767 766 765 764 762 761 760 760 759 758 757 757 756
785 786 787 787 787 788 788 789 789 789 789 789 790 790 790 790 790 789 789 789 789 789 789 789 789 789 789 789 788 788 788 787 787 786 785 784 783 782 781 780 779 778 777 777 776 775 775 774 773 772 771 771 770 769 767 767 766 765 763 762 761 760 759 758 758 757 756 755 754
785 786 786 787 787 788 788 788 789 789 789 789 789 789 789 789 789 789 789 789 789 789 789 789 789 789 788 788 788 788 787 787 786 785 784 783 782 782 781 780 779 778 777 776 775 774 774 773 772 771 770 769 768 767 767 765 764 763 762 761 760 759 758 757 756 756 755 754 753
785 785 786 787 787 787 788 788 788 789 789 789 789 789 789 789 789 789 789 789 788 788 788 788 788 788 788 788 787 787 787 786 785 784 783 782 782 781 780 779 778 777 776 775 774 773 773 772 771 770 769 768 767 766 765 764 763 762 760 759 758 757 757 756 755 754 753 752 752
785 785 786 786 787 787 787 788 788 788 788 789 789 789 789 789 789 788 788 788 788 788 788 788 788 788 788 787 787 786 786 785 784 783 782 782 781 780 779 778 777 776 775 774 773 772 772 771 770 769 768 767 766 765 764 763 762 761 759 758 757 756 755 755 754 753 752 751 750
784 785 786 786 787 787 787 787 788 788 788 788 788 788 788 788 788 788 788 788 788 788 788 787 787 787 787 787 786 786 785 784 783 782 782 781 780 779 778 777 776 775 774 773 772 772 771 770 769 768 767 766 764 763 762 762 761 759 758 757 756 755 754 753 752 752 751 750 749
784 785 785 786 786 787 787 787 787 787 788 788 788 788 788 788 788 788 788 787 787 787 787 787 787 787 786 786 786 785 784 783 783 782 781 780 779 778 777 776 775 774 773 772 771 770 770 769 768 767 766 765 763 762 761 760 759 758 757 756 755 754 753 752 752 751 750 749 748
784 785 785 786 786 786 787 787 787 787 787 788 788 788 788 788 788 788 787 787 787 787 787 787 786 786 786 785 785 784 783 783 782 781 780 779 778 777 776 775 774 773 772 771 770 769 768 767 767 766 765 763 762 761 760 759 758 757 756 755 754 753 752 752 751 750 749 748 747
784 784 785 785 786 786 786 787 787 787 787 787 787 788 788 788 787 787 787 787 787 786 786 786 786 785 785 784 784 783 783 782 781 780 779 778 777 776 775 774 773 772 771 770 769 768 767 766 765 764 763 762 761 760 759 757 757 756 755 754 753 752 751 750 750 749 748 747 746
783 784 784 785 785 786 786 786 786 787 787 787 787 787 787 787 787 787 787 786 786 786 786 785 785 785 784 784 783 783 782 781 781 780 779 777 777 776 774 773 772 771 770 769 768 767 766 765 764 763 762 761 760 758 757 757 755 754 753 752 752 751 750 749 748 748 747 746 745
783 783 784 784 785 785 785 786 786 786 786 787 787 787 787 787 787 786 786 786 786 785 785 785 784 784 783 783 782 782 781 781 780 779 778 777 776 775 774 772 772 771 770 769 767 767 765 764 763 762 761 759 758 757 756 755 754 753 752 751 751 750 749 748 747 747 746 745 744
783 783 783 784 784 785 785 785 786 786 786 786 786 787 787 786 786 786 786 785 785 785 785 784 784 783 783 782 782 781 781 780 779 778 777 776 775 774 773 772 771 770 769 767 767 765 764 763 762 761 759 758 757 756 755 754 752 752 751 750 749 748 748 747 746 745 744 744 742
782 783 783 784 784 784 785 785 785 785 786 786 786 786 786 786 786 785 785 785 785 784 784 784 783 783 782 782 781 781 780 779 778 777 776 775 774 773 772 771 770 769 767 767 765 764 763 762 761 759 758 757 756 755 754 752 752 750 749 748 748 747 746 746 745 744 743 742 741
782 782 783 783 784 784 784 784 785 785 785 785 785 785 785 785 785 785 785 785 784 784 784 783 783 783 782 782 781 780 779 778 777 776 775 774 773 772 771 770 769 768 767 766 764 763 762 761 759 758 757 756 755 754 752 752 750 749 748 747 746 745 745 744 743 742 742 741 740
782 782 782 783 783 784 784 784 784 784 785 785 785 785 785 785 784 784 784 784 784 784 783 783 782 782 782 781 780 779 778 777 776 775 774 773 772 771 770 769 768 767 766 765 764 763 762 760 759 757 756 755 754 753 752 750 749 748 747 746 745 744 743 742 742 741 740 739 738
781 782 782 783 783 783 783 783 784 784 784 784 784 784 784 784 784 784 784 783 783 783 783 782 782 782 781 780 779 778 777 777 776 774 773 772 771 770 769 768 767 766 765 764 763 762 761 760 759 757 755 754 752 752 750 749 748 747 746 745 743 742 741 740 740 739 739 738 737
781 782 782 782 782 783 783 783 783 783 783 784 784 784 783 783 783 783 783 783 783 783 782 782 782 781 780 779 778 777 777 776 775 774 772 771 770 769 768 767 766 765 764 763 762 761 760 759 758 757 755 753 752 750 749 747 747 746 745 743 742 741 740 739 738 737 737 737 736
781 781 782 782 782 782 782 783 783 783 783 783 783 783 783 783 783 783 783 783 782 782 782 781 781 780 779 778 777 776 775 775 774 773 772 771 769 768 767 766 765 764 763 762 761 760 759 758 757 755 754 752 751 749 748 746 745 744 743 742 741 740 739 738 737 736 735 734 734
781 781 781 782 782 782 782 783 783 783 783 783 783 783 783 783 783 782 782 782 782 782 781 781 780 779 778 777 776 775 775 774 773 772 771 770 768 767 766 765 764 763 762 761 760 759 758 757 755 754 753 752 750 748 747 745 744 742 742 741 740 739 738 737 736 735 734 733 732
780 780 781 781 782 782 782 782 782 783 783 783 783 783 782 782 782 782 782 782 782 781 780 780 779 778 777 776 775 775 774 773 772 771 770 769 767 766 765 764 763 762 761 760 759 758 757 755 754 753 752 750 749 747 745 744 742 741 740 739 738 737 737 736 735 734 733 732 731
780 780 780 781 781 782 782 782 782 782 782 782 782 782 782 782 782 782 782 781 781 780 780 779 778 777 776 775 775 774 773 772 771 770 769 768 767 765 764 763 762 761 760 759 758 757 756 754 753 752 750 749 747 746 744 743 741 740 739 738 737 736 735 734 733 732 732 730 729
779 780 780 780 781 781 782 782 782 782 782 782 782 782 782 782 782 782 781 781 780 779 779 778 777 776 775 775 774 773 772 771 770 769 768 767 766 765 763 762 761 760 759 758 757 756 754 753 752 750 749 747 746 744 743 741 740 739 737 737 735 735 734 733 732 731 730 729 728
779 780 780 780 780 781 781 781 782 782 782 782 782 782 782 782 781 781 781 780 779 779 778 777 776 775 774 773 773 772 771 770 769 768 767 766 765 764 762 762 760 759 758 757 756 755 753 752 750 749 747 746 744 743 741 740 738 737 736 735 734 733 732 732 731 730 729 728 727
779 779 780 780 780 781 781 781 781 782 782 782 782 782 781 781 781 780 780 779 779 778 777 776 775 775 774 773 772 771 770 769 768 767 766 765 764 763 762 760 759 758 757 756 755 754 752 751 749 747 746 744 743 741 740 738 737 736 735 733 733 732 731 730 730 729 728 727 726
779 779 780 780 780 780 781 781 781 781 781 781 781 781 781 781 780 780 779 779 778 777 776 776 775 774 773 772 771 770 769 768 767 766 765 764 763 762 761 759 758 757 756 755 754 752 751 749 747 746 744 743 741 739 738 737 735 734 733 732 731 731 730 729 728 728 727 726 725
779 779 779 780 780 780 781 781 781 781 781 781 781 781 780 780 780 779 778 778 777 776 776 775 774 773 772 772 771 769 768 767 766 765 764 763 762 761 760 758 757 756 755 754 753 752 750 748 746 745 743 741 740 738 737 735 733 732 731 730 730 729 728 728 727 727 726 725 724
779 779 779 779 780 780 780 781 781 781 781 781 780 780 780 779 779 778 778 777 776 776 775 774 773 772 771 770 769 768 767 766 765 764 763 762 761 760 758 757 756 755 754 753 752 750 749 747 745 743 742 740 738 737 735 734 732 731 730 729 728 728 727 727 726 725 724 723 722
779 779 779 779 780 780 780 780 781 781 780 780 780 780 779 778 778 777 777 777 776 775 774 773 772 771 770 769 768 767 766 766 764 763 762 761 760 759 757 756 755 754 753 752 751 749 747 746 744 742 741 739 737 735 734 732 731 730 729 728 727 727 726 725 724 723 722 722 721
778 779 779 779 780 780 780 780 780 780 780 780 779 779 778 778 777 777 777 776 775 774 773 772 771 770 769 768 767 766 765 765 764 762 762 760 759 758 757 755 754 753 752 751 749 748 747 745 743 742 740 738 736 734 732 731 730 729 728 727 726 725 725 724 723 722 721 720 719
778 779 779 779 780 780 780 780 780 780 780 779 779 778 778 777 777 776 776 775 775 774 772 771 770 769 768 767 766 765 764 763 763 762 761 760 758 757 756 754 753 752 751 749 748 747 746 744 742 741 739 737 736 734 732 731 729 728 727 726 725 724 723 723 722 721 719 718 717
778 779 779 779 780 780 780 780 780 780 779 779 778 778 777 777 776 776 775 775 774 773 772 771 769 768 767 766 765 764 763 762 762 761 760 759 758 757 755 754 752 751 750 748 747 746 745 743 742 740 738 737 735 733 732 730 728 727 726 725 724 723 722 721 721 720 718 717 715
778 779 779 779 779 780 780 780 779 779 779 778 778 777 777 777 776 775 774 773 773 772 771 769 768 767 766 765 764 763 762 761 760 760 759 758 757 756 754 753 751 750 748 747 747 745 744 742 741 740 738 737 735 733 731 730 728 727 726 724 724 722 721 720 719 718 717 716 713